Weather History for Easton, MD

Change the Weather History Date:

Saturday, April 12, 2014

  Actual Average Record
Temperature  
Mean Temperature 64 °F -  
Max Temperature 75 °F 63 °F 86 °F (1977)
Min Temperature 53 °F 37 °F 29 °F (1976)
Degree Days  
Heating Degree Days 1    
Growing Degree Days 14 (Base 50)    
Moisture  
Dew Point 50 °F    
Average Humidity 72    
Maximum Humidity 100    
Minimum Humidity 27    
Precipitation  
Precipitation 0.00 in - - ()
Sea Level Pressure  
Sea Level Pressure 30.18 in    
Wind  
Wind Speed 2 mph (SSE)    
Max Wind Speed 9 mph    
Max Gust Speed -    
Visibility 10 miles    
Events      
Averages and records for this station are not official NWS values.
T = Trace of Precipitation, MM = Missing Value Source: NWS Daily Summary

Daily Weather History Graph

Daily Weather History Graph

Search for Another Location

Airport:

Trip Planner

Search our weather history database for the weather conditions in past years. The results will help you decide how hot, cold, wet, or windy it might be!

Date:

Astronomy

Apr. 12, 2014 Rise Set
Actual Time 6:32 AM EDT 7:38 PM EDT
Civil Twilight 6:05 AM EDT 8:05 PM EDT
Nautical Twilight 5:32 AM EDT 8:38 PM EDT
Astronomical Twilight 4:58 AM EDT 9:12 PM EDT
Moon 5:15 PM EDT (4/12) 4:56 AM EDT (4/12)
Length of Visible Light 14h 00m
Length of Day
13h 06m
Waxing Gibbous, 93% of the Moon is Illuminated
Apr 12
Waxing Gibbous
Apr 15
Full
Apr 22
Last Quarter
Apr 29
New
May 6
First Quarter

Hourly Weather History & Observations

Time (EDT) Temp. Dew Point Humidity Pressure Visibility Wind Dir Wind Speed Gust Speed Precip Events Conditions
12:11 AM 61.0 °F 54.0 °F 78% 30.08 in 10.0 mi Calm Calm - N/A   Scattered Clouds
12:31 AM 62.1 °F 53.8 °F 74% 30.08 in 10.0 mi Calm Calm - N/A   Scattered Clouds
12:51 AM 61.7 °F 53.6 °F 75% 30.08 in 10.0 mi Calm Calm - N/A   Scattered Clouds
1:11 AM 60.3 °F 53.4 °F 78% 30.08 in 10.0 mi Calm Calm - N/A   Clear
1:31 AM 59.4 °F 53.6 °F 81% 30.10 in 10.0 mi Calm Calm - N/A   Clear
1:51 AM 58.1 °F 53.1 °F 83% 30.09 in 10.0 mi Calm Calm - N/A   Clear
2:11 AM 57.6 °F 53.8 °F 87% 30.10 in 10.0 mi Calm Calm - N/A   Scattered Clouds
2:31 AM 58.3 °F 53.8 °F 85% 30.10 in 10.0 mi Calm Calm - N/A   Scattered Clouds
2:51 AM 59.0 °F 53.6 °F 82% 30.10 in 10.0 mi Calm Calm - N/A   Scattered Clouds
3:11 AM 58.8 °F 54.1 °F 84% 30.11 in 10.0 mi Calm Calm - N/A   Scattered Clouds
3:31 AM 58.5 °F 54.5 °F 87% 30.12 in 10.0 mi Calm Calm - N/A   Mostly Cloudy
3:52 AM 57.9 °F 54.1 °F 87% 30.12 in 10.0 mi Calm Calm - N/A   Scattered Clouds
4:12 AM 56.5 °F 53.8 °F 91% 30.13 in 10.0 mi Calm Calm - N/A   Scattered Clouds
4:32 AM 55.8 °F 53.2 °F 91% 30.14 in 10.0 mi Calm Calm - N/A   Scattered Clouds
4:52 AM 55.2 °F 55.2 °F 100% 30.15 in 10.0 mi Calm Calm - N/A   Clear
5:12 AM 55.8 °F 54.5 °F 96% 30.16 in 10.0 mi Calm Calm - N/A   Clear
5:32 AM 55.9 °F 54.1 °F 94% 30.16 in 10.0 mi Calm Calm - N/A   Clear
5:50 AM 55.4 °F 55.4 °F 100% 30.17 in 10.0 mi Calm Calm - N/A   Clear
5:52 AM 55.6 °F 55.6 °F 100% 30.17 in 10.0 mi Calm Calm - N/A   Clear
6:12 AM 54.9 °F 54.9 °F 100% 30.18 in 10.0 mi Calm Calm - N/A   Clear
6:24 AM 54.0 °F 54.0 °F 100% 30.18 in 10.0 mi Calm Calm - N/A   Clear
6:50 AM 53.6 °F 53.6 °F 100% 30.21 in 10.0 mi Calm Calm - N/A   Clear
7:46 AM 59.0 °F 55.4 °F 88% 30.24 in 10.0 mi NNE 9.2 mph - N/A   Clear
8:51 AM 62.6 °F 53.6 °F 72% 30.27 in 10.0 mi NNE 8.1 mph - N/A   Clear
9:50 AM 64.4 °F 48.2 °F 56% 30.29 in 10.0 mi NNE 6.9 mph - N/A   Clear
10:50 AM 66.2 °F 42.8 °F 43% 30.30 in 10.0 mi NNE 8.1 mph - N/A   Clear
11:45 AM 69.8 °F 39.2 °F 33% 30.31 in 10.0 mi East 8.1 mph - N/A   Clear
12:50 PM 71.6 °F 41.0 °F 33% 30.29 in 10.0 mi NNW 3.5 mph - N/A   Clear
1:50 PM 73.4 °F 37.4 °F 27% 30.27 in 10.0 mi NE 4.6 mph - N/A   Partly Cloudy
2:48 PM 73.4 °F 37.4 °F 27% 30.24 in 10.0 mi Calm Calm - N/A   Clear
3:45 PM 75.2 °F 39.2 °F 27% 30.21 in 10.0 mi SW 3.5 mph - N/A   Clear
4:48 PM 75.2 °F 41.0 °F 29% 30.19 in 10.0 mi SW 4.6 mph - N/A   Clear
5:45 PM 73.4 °F 41.0 °F 31% 30.20 in 10.0 mi West 8.1 mph - N/A   Clear
6:50 PM 71.6 °F 41.0 °F 33% 30.23 in 10.0 mi SW 5.8 mph - N/A   Clear
7:50 PM 66.2 °F 48.2 °F 52% 30.23 in 10.0 mi South 6.9 mph - N/A   Clear
8:45 PM 66.2 °F 53.6 °F 64% 30.23 in 10.0 mi South 6.9 mph - N/A   Clear
10:34 PM 60.3 °F 50.9 °F 71% 30.23 in 10.0 mi South 8.1 mph - N/A   Clear
10:54 PM 59.4 °F 52.2 °F 77% 30.23 in 10.0 mi SSE 6.9 mph - N/A   Clear
11:14 PM 58.6 °F 52.9 °F 81% 30.22 in 10.0 mi SSE 9.2 mph - N/A   Clear
11:34 PM 58.3 °F 52.3 °F 81% 30.22 in 10.0 mi South 6.9 mph - N/A   Clear
11:54 PM 57.7 °F 52.0 °F 81% 30.22 in 10.0 mi South 9.2 mph - N/A   Clear